Date,TemperatureHighF,TemperatureAvgF,TemperatureLowF,DewpointHighF,DewpointAvgF,DewpointLowF,HumidityHigh,HumidityAvg,HumidityLow,PressureMaxIn,PressureMinIn,WindSpeedMaxMPH,WindSpeedAvgMPH,GustSpeedMaxMPH,PrecipitationSumIn
2013-2-1,27.5,23.5,18.8,16.0,9.9,5.0,67,56,43,30.15,29.66,15,6,0,0.00
2013-2-2,27.1,20.9,14.4,17.0,9.4,5.0,88,63,39,30.27,30.08,14,4,0,0.00
2013-2-3,27.3,21.8,16.9,19.0,15.8,14.0,91,78,60,30.07,29.78,6,2,0,0.00
2013-2-4,27.3,22.2,19.1,16.0,10.6,5.0,86,63,42,29.97,29.78,12,4,0,0.00
2013-2-5,25.3,22.7,20.5,23.0,17.2,9.0,90,80,60,30.01,29.93,5,1,0,0.00
2013-2-6,35.2,28.4,22.3,25.0,18.2,1.0,90,68,37,30.34,29.93,13,3,0,0.03
2013-2-7,30.3,22.8,16.6,14.0,6.4,0.0,67,50,38,30.52,30.34,7,3,0,0.00
2013-2-8,29.3,25.2,20.2,27.0,20.9,11.0,90,84,59,30.41,29.60,21,7,0,0.00
2013-2-9,25.0,20.6,14.8,20.0,10.3,0.0,90,67,34,30.28,29.69,22,12,0,0.00
2013-2-10,38.1,24.4,13.3,14.0,1.9,-3.0,65,40,19,30.48,30.28,12,4,0,0.00
2013-2-11,43.1,36.9,26.5,39.0,32.5,13.0,92,84,56,30.36,29.66,12,2,0,0.36
2013-2-12,42.1,36.9,33.3,35.0,29.0,25.0,90,74,58,29.93,29.68,3,0,0,0.00
2013-2-13,42.9,33.9,27.2,28.0,23.5,21.0,88,66,48,29.92,29.71,5,1,0,0.00
2013-2-14,41.5,33.7,28.1,28.0,25.2,23.0,89,73,49,30.00,29.72,10,3,0,0.02
2013-2-15,47.6,38.4,31.4,35.0,32.1,29.0,89,79,59,30.00,29.92,11,3,0,0.01
2013-2-16,37.3,31.1,25.9,32.0,23.3,18.0,89,74,52,29.95,29.71,8,4,0,0.03
2013-2-17,26.7,20.3,13.4,21.0,5.2,-1.0,81,53,36,29.85,29.55,24,10,0,0.01
2013-2-18,30.1,20.6,12.2,9.0,3.6,0.0,64,49,32,30.22,29.85,17,7,0,0.00
2013-2-19,42.8,35.1,24.4,37.0,26.8,9.0,89,72,47,30.21,29.62,9,4,0,0.26
2013-2-20,36.3,27.5,20.7,33.0,16.6,8.0,89,65,47,29.88,29.62,13,6,0,0.00
2013-2-21,27.3,22.3,19.4,14.0,12.9,11.0,76,68,57,30.29,29.87,20,8,0,0.00
2013-2-22,36.3,28.2,19.5,26.0,20.6,14.0,84,74,57,30.41,30.28,18,3,0,0.00
2013-2-23,35.3,32.6,30.6,32.0,29.0,26.0,89,86,83,30.30,29.85,11,4,0,0.10
2013-2-24,38.2,33.9,30.6,36.0,30.3,26.0,92,86,78,29.92,29.72,16,5,0,0.04
2013-2-25,40.5,34.0,28.8,29.0,26.6,24.0,84,75,58,30.25,29.92,11,3,0,0.00
2013-2-26,39.0,34.4,31.0,30.0,27.5,26.0,89,76,63,30.32,30.04,16,3,0,0.00
2013-2-27,40.6,37.1,32.5,37.0,33.8,30.0,92,87,86,30.02,29.57,21,4,0,1.54
2013-2-28,43.6,37.5,33.5,41.0,34.4,30.0,91,88,85,29.62,29.54,6,1,0,0.01